DW9353 Weather Reports


Display with metric or nautical units.
time (UTC)temp
F
wind
direction
speed
MPH
gust
MPH
rain 1hr
in
rain 24hr
in
rain mn
in
humidity
%
barometer
mb
20180919015052 66 0 0.0 0.0 0.00 2.93 2.93 97 1007.1
20180919014553 66 0 0.0 0.0 0.00 2.93 2.93 97 1007.2
20180919014052 66 0 0.0 0.0 0.00 2.93 2.93 97 1007.2
20180919013552 66 0 0.0 0.0 0.00 2.93 2.93 97 1007.1
20180919013055 66 0 0.0 0.0 0.00 2.93 2.93 97 1007.1
20180919012552 66 0 0.0 0.0 0.00 2.93 2.93 97 1007.1
20180919012052 66 0 0.0 0.0 0.00 2.93 2.93 97 1007.2
20180919011553 67 0 0.0 0.0 0.00 2.93 2.93 97 1007.0
20180919011053 67 0 0.0 0.0 0.00 2.93 2.93 97 1007.1
20180919010552 67 0 0.0 0.0 0.00 2.93 2.93 97 1007.1
20180919010054 67 0 0.0 0.0 0.00 2.93 2.93 97 1007.1
20180919005552 67 0 0.0 0.0 0.00 2.93 2.93 96 1007.2
20180919005052 67 0 0.0 0.0 0.00 2.93 2.93 96 1007.2
20180919004553 67 0 0.0 0.0 0.00 2.93 2.93 97 1007.1
20180919004053 67 0 0.0 0.0 0.00 2.93 2.93 97 1007.1
20180919003552 68 0 0.0 0.0 0.00 2.93 2.93 97 1007.1
20180919003054 68 0 0.0 0.0 0.00 2.93 2.93 96 1007.1
20180919002552 68 0 0.0 0.0 0.00 2.93 2.93 96 1007.1
20180919002052 68 0 0.0 0.0 0.00 2.93 2.93 97 1007.0
20180919001553 68 0 0.0 0.0 0.00 2.93 2.93 96 1007.0
20180919001052 68 0 0.0 0.0 0.00 2.93 2.93 96 1007.0
20180919000552 68 0 0.0 0.0 0.00 2.93 2.93 97 1007.0
20180919000054 69 0 0.0 0.0 0.00 2.93 2.93 97 1007.1
20180918235552 69 0 0.0 0.0 0.00 2.93 2.93 97 1007.1
20180918235053 69 0 0.0 0.0 0.00 2.93 2.93 96 1007.0
20180918234553 69 0 0.0 0.0 0.00 2.93 2.93 96 1007.0
20180918234052 69 0 0.0 0.0 0.00 2.93 2.93 96 1007.0
20180918233552 69 0 0.0 0.0 0.00 2.93 2.93 96 1007.0
20180918233054 70 0 0.0 0.0 0.00 2.93 2.93 96 1006.9
20180918232553 70 0 0.0 0.0 0.00 2.93 2.93 96 1006.7
20180918232052 70 0 0.0 0.0 0.00 2.93 2.93 96 1006.7
20180918231552 70 0 0.0 0.0 0.00 2.93 2.93 96 1006.6
20180918231052 70 0 0.0 0.0 0.00 2.93 2.93 95 1006.6
20180918230553 71 0 0.0 0.0 0.00 2.93 2.93 95 1006.6
20180918230054 71 0 0.0 0.0 0.00 2.93 2.93 95 1006.6
20180918225553 71 0 0.0 0.0 0.00 2.93 2.93 95 1006.5
20180918225052 71 0 0.0 0.0 0.00 2.93 2.93 94 1006.5
20180918224552 72 0 0.0 0.0 0.00 2.93 2.93 94 1006.5
20180918224053 72 0 0.0 0.0 0.00 2.93 2.93 95 1006.6
20180918223553 72 0 0.0 0.0 0.00 2.93 2.93 94 1006.5
20180918223054 72 0 0.0 0.0 0.00 2.93 2.93 94 1006.5
20180918222553 73 0 0.0 0.0 0.00 2.93 2.93 94 1006.3
20180918222052 73 205 0.0 2.0 0.00 2.93 2.93 94 1006.3
20180918221552 73 200 0.0 2.0 0.00 2.93 2.93 93 1006.3
20180918221053 73 182 0.0 2.0 0.00 2.93 2.93 93 1006.4
20180918220553 74 175 0.0 2.0 0.00 2.93 2.93 93 1006.4
20180918220054 74 159 0.0 6.0 0.00 2.93 2.93 92 1006.5
20180918215552 74 177 1.0 6.0 0.00 2.93 2.93 92 1006.5
20180918215052 74 235 1.0 3.0 0.00 2.93 2.93 93 1006.5
20180918214552 74 228 0.0 3.0 0.00 2.93 2.93 92 1006.5
20180918214053 74 233 0.0 1.0 0.00 2.93 2.93 92 1006.5
20180918213553 74 236 0.0 4.0 0.00 2.93 2.93 92 1006.5
20180918213054 74 237 1.0 4.0 0.00 2.93 2.93 92 1006.4
20180918212552 74 34 0.0 2.0 0.00 2.93 2.93 91 1006.5
20180918212052 75 54 0.0 2.0 0.00 2.93 2.93 92 1006.5
20180918211553 75 84 0.0 1.0 0.00 2.93 2.93 92 1006.6
20180918211053 75 84 0.0 1.0 0.00 2.93 2.93 91 1006.5
20180918210553 75 79 0.0 2.0 0.00 2.93 2.93 91 1006.5
20180918210054 75 112 1.0 2.0 0.00 2.93 2.93 90 1006.5
20180918205552 76 102 1.0 3.0 0.00 2.93 2.93 90 1006.5
20180918205052 76 100 1.0 3.0 0.00 2.93 2.93 90 1006.6
20180918204552 76 111 1.0 3.0 0.00 2.93 2.93 90 1006.6
20180918204053 76 95 1.0 5.0 0.00 2.93 2.93 90 1006.6
20180918203552 76 111 1.0 5.0 0.00 2.93 2.93 89 1006.6
20180918203054 76 183 1.0 6.0 0.00 2.93 2.93 89 1006.7
20180918202552 76 193 1.0 6.0 0.00 2.93 2.93 88 1006.7
20180918202052 76 206 1.0 2.0 0.00 2.93 2.93 89 1006.8
20180918201552 76 239 1.0 3.0 0.00 2.93 2.93 89 1006.8
20180918201053 76 248 1.0 7.0 0.00 2.93 2.93 89 1006.8
20180918200552 77 239 1.0 7.0 0.00 2.93 2.93 87 1006.7
20180918200054 77 210 1.0 4.0 0.00 2.93 2.93 88 1006.7
20180918195552 76 113 0.0 2.0 0.00 2.93 2.93 89 1006.6
20180918195052 76 153 0.0 3.0 0.00 2.93 2.93 88 1006.5
20180918194552 76 115 0.0 3.0 0.00 2.93 2.93 90 1006.4
20180918194053 75 74 0.0 1.0 0.00 2.93 2.93 89 1006.3
20180918193552 74 0 0.0 0.0 0.00 2.93 2.93 91 1006.1
20180918193054 74 0 0.0 0.0 0.00 2.93 2.93 94 1006.1
20180918192552 74 73 0.0 1.0 0.00 2.93 2.93 94 1006.2
20180918192052 74 73 0.0 1.0 0.00 2.93 2.93 90 1006.3
20180918191553 74 0 0.0 0.0 0.00 2.93 2.93 92 1006.4
20180918191052 74 57 0.0 2.0 0.00 2.93 2.93 93 1006.4
20180918190552 73 57 0.0 2.0 0.00 2.93 2.93 93 1006.2
20180918190054 73 292 0.0 3.0 0.00 2.93 2.93 95 1006.2
20180918185552 73 295 0.0 3.0 0.00 2.93 2.93 95 1006.2
20180918185053 73 336 0.0 1.0 0.00 2.93 2.93 95 1006.2
20180918184553 73 336 0.0 1.0 0.00 2.93 2.93 95 1006.1
20180918184052 73 351 0.0 2.0 0.00 2.93 2.93 95 1006.2
20180918183552 73 53 0.0 2.0 0.00 2.93 2.93 95 1006.0
20180918183054 73 80 0.0 2.0 0.00 2.93 2.93 95 1006.0
20180918182552 73 33 0.0 2.0 0.00 2.93 2.93 96 1005.9
20180918182053 72 76 0.0 2.0 0.00 2.93 2.93 95 1005.8
20180918181552 72 63 0.0 2.0 0.00 2.93 2.93 96 1006.0
20180918181052 72 39 0.0 2.0 0.00 2.93 2.93 97 1006.0
20180918180552 72 324 0.0 1.0 0.00 2.93 2.93 97 1006.1
20180918180054 72 283 0.0 1.0 0.00 2.93 2.93 97 1006.2
20180918175552 71 0 0.0 0.0 0.00 2.93 2.93 98 1006.4
20180918175053 71 0 0.0 0.0 0.00 2.93 2.93 97 1006.4
20180918174553 71 0 0.0 0.0 0.00 2.93 2.93 97 1006.6
20180918174052 71 0 0.0 0.0 0.00 2.93 2.93 98 1006.7
20180918173717 71 274 0.0 2.0 0.00 2.93 2.93 98 1006.6
20180918173330 70 274 0.0 2.0 0.00 2.93 2.93 98 1006.7
20180918172052 70 0 0.0 0.0 0.00 2.93 2.93 98 1006.7
20180918171552 70 274 0.0 1.0 0.00 2.93 2.93 98 1006.8
20180918171053 70 274 0.0 1.0 0.00 2.93 2.93 98 1006.8
20180918170552 70 274 0.0 1.0 0.00 2.93 2.93 98 1006.9
20180918170054 70 0 0.0 0.0 0.00 2.93 2.93 98 1006.9
20180918165553 70 0 0.0 0.0 0.00 2.93 2.93 98 1006.7
20180918165053 70 0 0.0 0.0 0.01 2.93 2.93 98 1006.6
20180918164552 69 274 0.0 1.0 0.01 2.93 2.93 98 1006.6
20180918164052 69 274 0.0 1.0 0.01 2.93 2.93 98 1006.8
20180918163552 69 294 0.0 3.0 0.01 2.93 2.93 98 1006.8
20180918163054 69 313 1.0 3.0 0.01 2.93 2.93 98 1006.8
20180918162553 69 79 0.0 2.0 0.01 2.93 2.93 98 1006.6
20180918162053 69 79 0.0 2.0 0.02 2.93 2.93 98 1006.6
20180918161552 69 99 0.0 1.0 0.02 2.93 2.93 98 1006.5
20180918161052 69 92 0.0 2.0 0.03 2.93 2.93 98 1006.3
20180918160552 69 88 0.0 2.0 0.03 2.93 2.93 98 1006.3
20180918160054 68 308 0.0 1.0 0.03 2.93 2.93 98 1006.3
20180918155552 68 319 0.0 2.0 0.04 2.93 2.93 98 1006.4
20180918155053 68 323 0.0 4.0 0.04 2.92 2.92 98 1006.9
20180918154552 68 324 0.0 4.0 0.05 2.92 2.92 98 1007.1
20180918154052 68 316 0.0 2.0 0.05 2.92 2.92 98 1007.2
20180918153553 68 317 0.0 3.0 0.06 2.92 2.92 98 1007.2
20180918153053 68 317 0.0 3.0 0.12 2.92 2.92 98 1007.2
20180918152553 68 317 0.0 1.0 0.19 2.91 2.91 98 1007.0
20180918152052 68 317 0.0 1.0 0.24 2.91 2.91 98 1006.8
20180918151552 68 316 0.0 2.0 0.35 2.91 2.91 98 1006.7
20180918151053 68 316 0.0 2.0 0.35 2.90 2.90 98 1006.3
20180918150554 67 0 0.0 0.0 0.36 2.90 2.90 98 1006.2
20180918150054 67 317 0.0 1.0 0.39 2.90 2.90 98 1006.4
20180918145553 67 315 0.0 2.0 0.39 2.89 2.89 98 1006.5
20180918145052 67 351 1.0 3.0 0.43 2.88 2.88 98 1006.3
20180918144552 67 47 0.0 3.0 0.43 2.87 2.87 98 1006.3
20180918144052 67 138 0.0 2.0 0.45 2.87 2.87 98 1006.7
20180918143552 67 234 0.0 1.0 0.44 2.85 2.85 98 1007.2
20180918143055 67 296 0.0 3.0 0.41 2.80 2.80 98 1007.4
20180918142552 68 267 1.0 4.0 0.34 2.71 2.71 98 1007.7
20180918142052 68 241 1.0 4.0 0.33 2.66 2.66 98 1007.8
20180918141553 68 166 0.0 2.0 0.26 2.56 2.56 98 1007.4
20180918141053 67 167 0.0 1.0 0.27 2.54 2.54 98 1007.5
20180918140552 68 224 0.0 2.0 0.29 2.53 2.53 98 1007.4
20180918140054 68 223 0.0 2.0 0.32 2.51 2.51 98 1007.5
20180918135552 68 199 0.0 1.0 0.35 2.49 2.49 98 1007.7
20180918135053 68 119 0.0 3.0 0.34 2.45 2.45 98 1007.8
20180918134553 67 114 1.0 3.0 0.36 2.44 2.44 98 1007.4
20180918134053 68 105 0.0 2.0 0.38 2.42 2.42 98 1007.0
20180918133553 67 85 0.0 2.0 0.41 2.41 2.41 98 1007.3
20180918133054 67 271 0.0 2.0 0.42 2.39 2.39 98 1007.4
20180918132553 67 269 0.0 2.0 0.45 2.37 2.37 98 1007.4
20180918132052 67 269 0.0 2.0 0.49 2.33 2.33 98 1007.7
20180918131552 67 202 0.0 2.0 0.57 2.29 2.29 98 1007.9
20180918131052 67 136 0.0 2.0 0.60 2.26 2.26 98 1007.7
20180918130553 67 163 0.0 2.0 0.62 2.24 2.24 98 1007.8
20180918130054 67 163 0.0 2.0 0.65 2.19 2.19 98 1007.7
20180918125552 67 115 1.0 3.0 0.68 2.14 2.14 98 1008.2
20180918125052 67 104 1.0 3.0 0.69 2.11 2.11 98 1008.1
20180918124552 67 110 0.0 2.0 0.68 2.07 2.07 98 1008.0
20180918124053 67 135 0.0 1.0 0.70 2.04 2.04 98 1008.2
20180918123552 67 135 0.0 1.0 0.73 2.00 2.00 98 1008.3
20180918123054 67 135 0.0 2.0 0.77 1.97 1.97 98 1008.5
20180918122552 67 135 0.0 2.0 0.77 1.91 1.91 98 1008.9
20180918122052 67 130 0.0 1.0 0.72 1.81 1.81 98 1009.0
20180918121552 67 98 0.0 3.0 0.69 1.71 1.71 98 1008.7
20180918121053 67 97 1.0 3.0 0.66 1.66 1.66 98 1008.2
20180918120553 68 21 1.0 5.0 0.65 1.61 1.61 98 1008.1
20180918120054 68 283 1.0 5.0 0.61 1.53 1.53 98 1008.6
20180918115552 68 356 1.0 4.0 0.58 1.45 1.45 98 1009.0
20180918115053 68 50 1.0 4.0 0.60 1.42 1.42 98 1008.5
20180918114552 68 76 1.0 4.0 0.69 1.39 1.39 98 1008.5
20180918114052 68 77 0.0 4.0 0.68 1.34 1.34 98 1008.1
20180918113552 68 83 0.0 1.0 0.61 1.25 1.25 98 1008.6
20180918113054 68 82 0.0 2.0 0.55 1.19 1.19 97 1009.1
20180918112553 68 82 0.0 2.0 0.52 1.14 1.14 97 1009.1
20180918112052 68 83 0.0 2.0 0.50 1.07 1.07 97 1009.1
20180918111552 68 83 0.0 2.0 0.48 1.02 1.02 97 1009.3
20180918111053 68 83 0.0 2.0 0.47 0.99 0.99 97 1009.8
20180918110552 68 82 0.0 1.0 0.48 0.96 0.96 97 1009.8
20180918110054 68 83 0.0 2.0 0.50 0.91 0.91 97 1009.8
20180918105552 68 84 0.0 2.0 0.50 0.86 0.86 97 1009.9
20180918105052 68 175 0.0 1.0 0.46 0.80 0.80 97 1010.0
20180918104552 68 0 0.0 0.0 0.38 0.70 0.70 97 1010.2
20180918104052 68 206 0.0 2.0 0.36 0.66 0.66 97 1010.2
20180918103552 68 206 0.0 2.0 0.35 0.64 0.64 97 1010.4
20180918103054 68 205 0.0 1.0 0.37 0.64 0.64 97 1010.3
20180918102552 68 205 0.0 1.0 0.38 0.60 0.60 97 1010.4
20180918102052 68 205 0.0 1.0 0.37 0.57 0.57 97 1010.3
20180918101552 68 0 0.0 0.0 0.37 0.54 0.54 97 1010.3
20180918101052 68 205 0.0 1.0 0.36 0.52 0.52 97 1010.4
20180918100553 68 205 0.0 1.0 0.33 0.48 0.48 97 1010.5
20180918100054 68 0 0.0 0.0 0.28 0.41 0.41 97 1010.8
20180918095552 68 0 0.0 0.0 0.24 0.36 0.36 97 1010.9
20180918095052 68 205 0.0 1.0 0.22 0.34 0.34 97 1010.9
20180918094553 68 208 0.0 3.0 0.22 0.32 0.32 96 1010.8
20180918094052 68 210 0.0 3.0 0.21 0.30 0.30 96 1010.8
20180918093552 68 215 0.0 1.0 0.20 0.29 0.29 96 1010.8
20180918093054 68 216 0.0 1.0 0.17 0.26 0.26 96 1011.0
20180918092552 68 230 0.0 2.0 0.13 0.22 0.22 97 1011.2
20180918092052 69 230 0.0 2.0 0.11 0.19 0.19 96 1011.3
20180918091553 69 245 0.0 3.0 0.09 0.17 0.17 96 1011.3
20180918091052 69 245 0.0 3.0 0.09 0.16 0.16 96 1011.4
20180918090552 69 0 0.0 0.0 0.07 0.14 0.14 96 1011.3
20180918090055 69 154 0.0 1.0 0.07 0.13 0.13 96 1011.3
20180918085552 69 167 0.0 3.0 0.06 0.12 0.12 96 1011.3
20180918085052 69 201 1.0 5.0 0.07 0.12 0.12 96 1011.4
20180918084552 69 213 1.0 5.0 0.05 0.10 0.10 96 1011.4
20180918084053 69 210 1.0 6.0 0.04 0.09 0.09 96 1011.5
20180918083552 69 200 1.0 6.0 0.04 0.09 0.09 96 1011.5
20180918083054 69 196 1.0 4.0 0.04 0.09 0.09 96 1011.5
20180918082552 70 238 1.0 4.0 0.04 0.09 0.09 96 1011.4
20180918082052 70 262 1.0 4.0 0.03 0.08 0.08 96 1011.4
20180918081553 70 265 1.0 3.0 0.03 0.08 0.08 96 1011.5
20180918081052 70 251 1.0 4.0 0.03 0.07 0.07 96 1011.5
20180918080552 70 203 1.0 5.0 0.03 0.07 0.07 96 1011.5
20180918080053 70 221 1.0 5.0 0.02 0.06 0.06 96 1011.5
20180918075553 70 235 1.0 5.0 0.02 0.06 0.06 96 1011.6
20180918075052 70 229 0.0 3.0 0.01 0.05 0.05 97 1011.7
20180918074552 70 227 1.0 7.0 0.01 0.05 0.05 97 1011.9
20180918074053 70 216 1.0 7.0 0.02 0.05 0.05 96 1011.9
20180918073552 70 232 0.0 3.0 0.02 0.05 0.05 96 1011.9
20180918073054 70 244 0.0 3.0 0.03 0.05 0.05 96 1012.0
20180918072552 70 212 0.0 2.0 0.03 0.05 0.05 96 1012.0
20180918072052 70 229 0.0 2.0 0.03 0.05 0.05 96 1012.1
20180918071553 70 237 0.0 2.0 0.03 0.05 0.05 96 1012.2
20180918071052 70 257 0.0 1.0 0.02 0.04 0.04 96 1012.1
20180918070552 70 257 0.0 1.0 0.02 0.04 0.04 96 1012.1
20180918070054 70 262 0.0 3.0 0.02 0.04 0.04 96 1012.2
20180918065552 70 265 0.0 4.0 0.03 0.04 0.04 96 1012.3
20180918065053 70 247 1.0 4.0 0.03 0.04 0.04 96 1012.4
20180918064552 70 243 0.0 6.0 0.03 0.04 0.04 96 1012.4
20180918064052 70 252 0.0 6.0 0.02 0.03 0.03 96 1012.5
20180918063552 70 254 0.0 1.0 0.02 0.03 0.03 95 1012.6
20180918063054 70 271 0.0 3.0 0.01 0.02 0.02 95 1012.6
20180918062553 70 277 0.0 3.0 0.02 0.02 0.02 95 1012.6
20180918062052 70 255 0.0 2.0 0.02 0.02 0.02 94 1012.7
20180918061552 70 247 0.0 3.0 0.02 0.02 0.02 94 1012.7
20180918061052 70 247 1.0 3.0 0.02 0.02 0.02 93 1012.7
20180918060552 70 248 1.0 2.0 0.02 0.02 0.02 93 1012.8
20180918060054 70 246 0.0 2.0 0.02 0.02 0.02 92 1012.8
20180918055552 70 242 0.0 5.0 0.01 0.01 0.01 91 1012.9
20180918055052 70 230 1.0 5.0 0.01 0.01 0.01 91 1012.9
20180918054052 70 248 0.0 4.0 0.01 0.01 0.01 89 1012.9
20180918053552 71 242 1.0 5.0 0.01 0.01 0.01 88 1012.9
20180918053054 71 244 1.0 5.0 0.01 0.01 0.01 87 1012.9
20180918052552 71 260 1.0 4.0 0.00 0.00 0.00 87 1012.9
20180918052052 71 259 1.0 4.0 0.00 0.00 0.00 86 1012.9
20180918051552 71 250 1.0 4.0 0.00 0.00 0.00 85 1012.9
20180918051052 71 247 1.0 6.0 0.00 0.00 0.00 85 1013.0
20180918050552 71 252 0.0 6.0 0.00 0.00 0.00 84 1013.0
20180918050054 71 242 1.0 5.0 0.00 0.00 0.00 84 1013.0
20180918045552 71 234 1.0 5.0 0.00 0.00 0.00 84 1012.9
20180918045053 71 242 1.0 7.0 0.00 0.00 0.00 83 1013.0
20180918044552 71 236 1.0 7.0 0.00 0.00 0.00 83 1013.0
20180918044052 71 228 1.0 7.0 0.00 0.00 0.00 83 1013.0
20180918043552 72 222 2.0 5.0 0.00 0.00 0.00 83 1013.0
20180918043054 72 229 1.0 5.0 0.00 0.00 0.00 83 1013.0
20180918042552 71 251 2.0 9.0 0.00 0.00 0.00 83 1012.9
20180918042052 72 255 2.0 9.0 0.00 0.00 0.00 83 1013.0
20180918041552 72 243 2.0 8.0 0.00 0.00 0.00 83 1013.0
20180918041052 71 223 1.0 8.0 0.00 0.00 0.00 83 1013.0
20180918040552 71 232 1.0 6.0 0.00 0.00 0.00 82 1013.1
20180918040056 71 237 1.0 6.0 0.00 0.00 0.00 82 1013.1
20180918035552 71 220 1.0 4.0 0.00 0.00 0.00 82 1013.1
20180918035053 72 228 1.0 4.0 0.00 0.00 0.00 82 1013.1
20180918034552 71 241 1.0 6.0 0.00 0.00 0.00 82 1013.2
20180918034052 72 239 1.0 6.0 0.00 0.00 0.00 82 1013.2
20180918033552 72 261 1.0 4.0 0.00 0.00 0.00 82 1013.2
20180918033053 72 252 1.0 5.0 0.00 0.00 0.00 81 1013.3
20180918032552 72 237 1.0 5.0 0.00 0.00 0.00 82 1013.4
20180918032052 71 253 1.0 5.0 0.00 0.00 0.00 82 1013.3
20180918031552 71 253 1.0 5.0 0.00 0.00 0.00 82 1013.3
20180918031052 71 235 1.0 4.0 0.00 0.00 0.00 82 1013.4
20180918030552 71 254 1.0 3.0 0.00 0.00 0.00 82 1013.5
20180918030054 71 246 1.0 4.0 0.00 0.00 0.00 81 1013.4
20180918025552 71 233 1.0 6.0 0.00 0.00 0.00 81 1013.5
20180918025052 71 244 1.0 6.0 0.00 0.00 0.00 81 1013.4
20180918024552 71 254 2.0 7.0 0.00 0.00 0.00 81 1013.3
20180918024053 71 255 1.0 7.0 0.00 0.00 0.00 81 1013.4
20180918023552 71 250 2.0 5.0 0.00 0.00 0.00 81 1013.4
20180918023054 71 250 2.0 5.0 0.00 0.00 0.00 82 1013.4
20180918022552 70 258 1.0 4.0 0.00 0.00 0.00 82 1013.3
20180918022052 70 209 0.0 2.0 0.00 0.00 0.00 82 1013.3
20180918021052 70 236 0.0 4.0 0.00 0.00 0.00 81 1013.4
20180918020552 70 248 1.0 4.0 0.00 0.00 0.00 81 1013.5
20180918020054 70 237 1.0 4.0 0.00 0.00 0.00 81 1013.4
20180918015552 70 227 1.0 3.0 0.00 0.00 0.00 81 1013.5